Radiation Dose at Monitoring Post of Fukushima Daini Nuclear Power Station
Date,Time,MP-1(microSv/h),MP-2(microSv/h),MP-3(microSv/h),MP-4(microSv/h),MP-5(microSv/h),MP-6(microSv/h),MP-7(microSv/h),Wind Direction,Wind Velocity(m/s),Rain
2022/11/08,00:00,0.157,0.142,0.226,0.218,0.218,0.125,0.079,west-northwest,4.2,No
2022/11/08,00:10,0.156,0.142,0.228,0.218,0.215,0.125,0.079,northwest,4.3,No
2022/11/08,00:20,0.157,0.143,0.227,0.217,0.217,0.124,0.079,northwest,3.5,No
2022/11/08,00:30,0.157,0.143,0.227,0.216,0.216,0.126,0.079,west-northwest,4.5,No
2022/11/08,00:40,0.156,0.142,0.227,0.217,0.216,0.124,0.080,west-northwest,4.8,No
2022/11/08,00:50,0.157,0.143,0.227,0.217,0.218,0.124,0.079,northwest,3.9,No
2022/11/08,01:00,0.157,0.143,0.227,0.218,0.216,0.124,0.080,northwest,2.8,No
2022/11/08,01:10,0.157,0.142,0.228,0.218,0.218,0.125,0.079,northwest,3.0,No
2022/11/08,01:20,0.157,0.143,0.227,0.217,0.218,0.125,0.079,west-northwest,5.3,No
2022/11/08,01:30,0.157,0.142,0.228,0.219,0.216,0.124,0.079,west-northwest,5.5,No
2022/11/08,01:40,0.157,0.143,0.229,0.219,0.217,0.124,0.080,northwest,4.1,No
2022/11/08,01:50,0.157,0.143,0.228,0.217,0.217,0.124,0.079,northwest,4.6,No
2022/11/08,02:00,0.157,0.143,0.227,0.218,0.216,0.124,0.080,northwest,6.0,No
2022/11/08,02:10,0.157,0.143,0.228,0.219,0.218,0.125,0.079,northwest,5.3,No
2022/11/08,02:20,0.158,0.142,0.226,0.218,0.218,0.125,0.080,northwest,4.3,No
2022/11/08,02:30,0.156,0.143,0.227,0.219,0.216,0.125,0.080,northwest,4.3,No
2022/11/08,02:40,0.157,0.143,0.227,0.218,0.218,0.124,0.079,northwest,4.2,No
2022/11/08,02:50,0.156,0.141,0.227,0.217,0.215,0.125,0.080,northwest,4.6,No
2022/11/08,03:00,0.157,0.144,0.228,0.218,0.217,0.125,0.080,northwest,4.5,No
2022/11/08,03:10,0.157,0.142,0.228,0.220,0.217,0.125,0.080,northwest,5.3,No
2022/11/08,03:20,0.157,0.144,0.228,0.218,0.216,0.125,0.080,northwest,2.9,No
2022/11/08,03:30,0.158,0.143,0.227,0.219,0.219,0.124,0.080,north-northwest,2.7,No
2022/11/08,03:40,0.158,0.144,0.228,0.219,0.217,0.125,0.080,north-northwest,4.1,No
2022/11/08,03:50,0.157,0.143,0.227,0.218,0.218,0.125,0.080,north-northwest,4.5,No
2022/11/08,04:00,0.158,0.144,0.227,0.218,0.218,0.125,0.080,north-northwest,4.5,No
2022/11/08,04:10,0.158,0.143,0.227,0.219,0.217,0.124,0.080,north-northwest,4.2,No
2022/11/08,04:20,0.157,0.142,0.228,0.219,0.217,0.126,0.080,north-northwest,4.1,No
2022/11/08,04:30,0.157,0.143,0.228,0.218,0.217,0.125,0.079,north-northwest,4.1,No
2022/11/08,04:40,0.158,0.143,0.227,0.218,0.216,0.125,0.079,north-northwest,3.2,No
2022/11/08,04:50,0.157,0.143,0.228,0.219,0.217,0.126,0.080,north-northwest,2.6,No
2022/11/08,05:00,0.158,0.143,0.228,0.218,0.217,0.124,0.080,north-northwest,2.3,No
2022/11/08,05:10,0.158,0.143,0.227,0.217,0.216,0.124,0.080,north-northwest,1.5,No
2022/11/08,05:20,0.157,0.142,0.228,0.218,0.216,0.125,0.080,north-northwest,0.6,No
2022/11/08,05:30,0.158,0.142,0.227,0.218,0.217,0.125,0.080,north,1.2,No
2022/11/08,05:40,0.157,0.144,0.227,0.218,0.216,0.125,0.080,north,1.4,No
2022/11/08,05:50,0.157,0.143,0.227,0.218,0.217,0.125,0.080,north,2.7,No
2022/11/08,06:00,0.157,0.142,0.228,0.218,0.218,0.124,0.080,north-northwest,3.5,No
2022/11/08,06:10,0.158,0.144,0.228,0.217,0.216,0.125,0.080,north,3.1,No
2022/11/08,06:20,0.157,0.143,0.229,0.218,0.218,0.125,0.080,north,2.8,No
2022/11/08,06:30,0.157,0.142,0.228,0.218,0.216,0.125,0.080,north,3.0,No
2022/11/08,06:40,0.158,0.143,0.228,0.218,0.216,0.125,0.079,north,3.3,No
2022/11/08,06:50,0.157,0.143,0.227,0.218,0.217,0.126,0.080,north-northwest,3.8,No
2022/11/08,07:00,0.158,0.143,0.228,0.219,0.217,0.125,0.080,northwest,6.2,No
2022/11/08,07:10,0.156,0.143,0.227,0.218,0.217,0.125,0.080,northwest,6.3,No
2022/11/08,07:20,0.158,0.143,0.227,0.216,0.217,0.125,0.080,northwest,4.9,No
2022/11/08,07:30,0.157,0.143,0.226,0.218,0.218,0.125,0.079,north,2.0,No
2022/11/08,07:40,0.157,0.142,0.227,0.217,0.217,0.125,0.080,north,3.1,No
2022/11/08,07:50,0.157,0.143,0.228,0.217,0.217,0.126,0.081,northwest,2.9,No
2022/11/08,08:00,0.157,0.142,0.228,0.217,0.215,0.124,0.079,west-northwest,5.5,No
2022/11/08,08:10,0.158,0.143,0.227,0.217,0.218,0.124,0.079,northwest,6.1,No
2022/11/08,08:20,0.158,0.143,0.228,0.218,0.217,0.125,0.080,northwest,4.6,No
2022/11/08,08:30,0.157,0.142,0.227,0.216,0.218,0.124,0.079,north-northwest,2.4,No
2022/11/08,08:40,0.157,0.142,0.227,0.218,0.216,0.123,0.079,northwest,2.9,No
2022/11/08,08:50,0.156,0.142,0.227,0.215,0.217,0.123,0.080,north-northwest,3.5,No
2022/11/08,09:00,0.158,0.142,0.227,0.216,0.216,0.124,0.080,north-northwest,1.8,No
2022/11/08,09:10,0.156,0.143,0.226,0.216,0.217,0.123,0.079,north-northwest,3.8,No
2022/11/08,09:20,0.157,0.142,0.227,0.215,0.215,0.124,0.079,north-northwest,6.3,No
2022/11/08,09:30,0.156,0.142,0.227,0.218,0.217,0.123,0.080,northwest,6.4,No
2022/11/08,09:40,0.157,0.141,0.226,0.215,0.216,0.124,0.079,northwest,6.5,No
2022/11/08,09:50,0.157,0.141,0.226,0.217,0.217,0.124,0.079,northwest,4.5,No
2022/11/08,10:00,0.157,0.142,0.227,0.218,0.216,0.124,0.079,northwest,5.9,No
2022/11/08,10:10,0.157,0.142,0.228,0.216,0.214,0.124,0.078,northwest,5.6,No
2022/11/08,10:20,0.156,0.143,0.226,0.217,0.216,0.124,0.079,northwest,4.7,No
2022/11/08,10:30,0.156,0.142,0.225,0.219,0.216,0.124,0.079,northwest,4.3,No
2022/11/08,10:40,0.157,0.142,0.227,0.216,0.215,0.123,0.080,west-northwest,6.1,No
2022/11/08,10:50,0.155,0.143,0.227,0.216,0.213,0.125,0.079,west-northwest,6.2,No
2022/11/08,11:00,0.156,0.142,0.224,0.217,0.215,0.124,0.078,west-northwest,4.8,No
2022/11/08,11:10,0.157,0.141,0.227,0.217,0.215,0.124,0.079,north-northwest,3.6,No
2022/11/08,11:20,0.155,0.142,0.225,0.217,0.215,0.125,0.079,north-northwest,2.9,No
2022/11/08,11:30,0.157,0.141,0.226,0.218,0.220,0.123,0.079,west-northwest,6.1,No
2022/11/08,11:40,0.157,0.143,0.227,0.215,0.216,0.124,0.079,west-northwest,5.2,No
2022/11/08,11:50,0.155,0.143,0.227,0.217,0.215,0.124,0.079,northwest,4.1,No
2022/11/08,12:00,0.156,0.142,0.226,0.218,0.217,0.124,0.079,west-northwest,6.4,No
2022/11/08,12:10,0.157,0.143,0.228,0.216,0.218,0.125,0.080,west-northwest,6.7,No
2022/11/08,12:20,0.156,0.143,0.227,0.218,0.215,0.124,0.080,northwest,7.8,No
2022/11/08,12:30,0.156,0.142,0.225,0.219,0.214,0.124,0.080,northwest,10.6,No
2022/11/08,12:40,0.157,0.141,0.225,0.216,0.218,0.125,0.080,west-northwest,8.9,No
2022/11/08,12:50,0.157,0.142,0.227,0.218,0.216,0.125,0.079,west-northwest,6.5,No
2022/11/08,13:00,0.156,0.142,0.226,0.218,0.214,0.124,0.079,west,5.8,No
2022/11/08,13:10,0.156,0.141,0.227,0.216,0.216,0.124,0.078,northwest,5.3,No
2022/11/08,13:20,0.157,0.142,0.227,0.216,0.217,0.126,0.079,west,7.5,No
2022/11/08,13:30,0.157,0.143,0.228,0.219,0.216,0.124,0.080,west-northwest,5.4,No
2022/11/08,13:40,0.155,0.142,0.225,0.217,0.214,0.125,0.079,west-northwest,6.5,No
2022/11/08,13:50,0.157,0.142,0.227,0.216,0.214,0.123,0.080,west-northwest,6.8,No
2022/11/08,14:00,0.157,0.142,0.227,0.219,0.218,0.124,0.079,west-northwest,6.6,No
2022/11/08,14:10,0.157,0.141,0.228,0.219,0.216,0.126,0.079,west-northwest,7.6,No
2022/11/08,14:20,0.158,0.143,0.228,0.218,0.218,0.125,0.080,west-northwest,6.7,No
2022/11/08,14:30,0.157,0.143,0.228,0.218,0.216,0.123,0.080,west-northwest,6.7,No
2022/11/08,14:40,0.158,0.143,0.227,0.217,0.218,0.125,0.080,west-northwest,5.9,No
2022/11/08,14:50,0.157,0.144,0.229,0.221,0.216,0.125,0.080,west-northwest,4.9,No
2022/11/08,15:00,0.157,0.143,0.227,0.218,0.217,0.124,0.079,west,7.3,No
2022/11/08,15:10,0.155,0.144,0.229,0.220,0.217,0.124,0.080,west,7.3,No
2022/11/08,15:20,0.158,0.142,0.227,0.219,0.217,0.125,0.079,west,6.1,No
2022/11/08,15:30,0.158,0.144,0.229,0.220,0.217,0.125,0.080,west,5.2,No
2022/11/08,15:40,0.157,0.142,0.228,0.217,0.217,0.125,0.079,west-northwest,6.1,No
2022/11/08,15:50,0.158,0.143,0.228,0.219,0.217,0.125,0.080,west,6.4,No
2022/11/08,16:00,0.158,0.143,0.228,0.219,0.216,0.125,0.080,west,6.9,No
2022/11/08,16:10,0.158,0.143,0.228,0.219,0.217,0.125,0.080,west,5.5,No
2022/11/08,16:20,0.157,0.144,0.229,0.218,0.216,0.126,0.081,west,5.3,No
2022/11/08,16:30,0.158,0.143,0.227,0.217,0.216,0.125,0.079,west-northwest,4.7,No
2022/11/08,16:40,0.157,0.143,0.228,0.218,0.217,0.124,0.080,west-northwest,5.0,No
2022/11/08,16:50,0.158,0.143,0.229,0.218,0.216,0.125,0.079,west-northwest,5.5,No
2022/11/08,17:00,0.157,0.143,0.227,0.218,0.217,0.125,0.079,west-northwest,5.0,No
2022/11/08,17:10,0.158,0.144,0.228,0.219,0.216,0.124,0.080,west-northwest,4.5,No
2022/11/08,17:20,0.158,0.142,0.229,0.218,0.217,0.125,0.079,northwest,4.0,No
2022/11/08,17:30,0.157,0.143,0.228,0.219,0.218,0.125,0.079,west-northwest,4.2,No
2022/11/08,17:40,0.159,0.143,0.227,0.219,0.217,0.125,0.079,west-northwest,3.3,No
2022/11/08,17:50,0.157,0.143,0.228,0.218,0.218,0.125,0.080,west-northwest,2.9,No
2022/11/08,18:00,0.158,0.143,0.228,0.221,0.217,0.124,0.079,northwest,2.5,No
2022/11/08,18:10,0.158,0.144,0.228,0.219,0.216,0.125,0.080,west-northwest,1.8,No
2022/11/08,18:20,0.157,0.143,0.228,0.219,0.217,0.125,0.080,west-northwest,2.3,No
2022/11/08,18:30,0.156,0.143,0.229,0.219,0.216,0.125,0.079,northwest,1.7,No
2022/11/08,18:40,0.158,0.143,0.228,0.219,0.218,0.125,0.079,northwest,2.5,No
2022/11/08,18:50,0.158,0.143,0.228,0.219,0.217,0.126,0.080,northwest,2.5,No
2022/11/08,19:00,0.158,0.144,0.229,0.219,0.216,0.125,0.080,northwest,2.5,No
2022/11/08,19:10,0.158,0.144,0.229,0.219,0.217,0.125,0.080,northwest,1.2,No
2022/11/08,19:20,0.158,0.143,0.229,0.218,0.217,0.125,0.080,north-northwest,2.4,No
2022/11/08,19:30,0.158,0.143,0.228,0.219,0.217,0.125,0.081,northwest,2.4,No
2022/11/08,19:40,0.157,0.145,0.230,0.218,0.217,0.125,0.080,northwest,3.2,No
2022/11/08,19:50,0.158,0.143,0.229,0.219,0.217,0.125,0.079,west-northwest,2.7,No
2022/11/08,20:00,0.157,0.142,0.228,0.220,0.217,0.126,0.080,west-northwest,2.4,No
2022/11/08,20:10,0.157,0.143,0.230,0.219,0.217,0.124,0.079,west-northwest,1.5,No
2022/11/08,20:20,0.158,0.142,0.228,0.218,0.217,0.125,0.079,west-northwest,2.7,No
2022/11/08,20:30,0.158,0.142,0.227,0.219,0.218,0.126,0.080,west-northwest,2.6,No
2022/11/08,20:40,0.157,0.144,0.229,0.218,0.217,0.125,0.079,west-northwest,3.3,No
2022/11/08,20:50,0.158,0.142,0.229,0.218,0.217,0.125,0.080,west-northwest,5.0,No
2022/11/08,21:00,0.157,0.144,0.228,0.218,0.217,0.124,0.080,west-northwest,4.6,No
2022/11/08,21:10,0.157,0.143,0.227,0.220,0.217,0.125,0.080,west-northwest,6.1,No
2022/11/08,21:20,0.157,0.142,0.229,0.217,0.216,0.125,0.080,west-northwest,5.7,No
2022/11/08,21:30,0.158,0.142,0.228,0.219,0.217,0.125,0.080,northwest,4.6,No
2022/11/08,21:40,0.158,0.144,0.227,0.219,0.216,0.125,0.080,northwest,6.8,No
2022/11/08,21:50,0.158,0.143,0.228,0.219,0.215,0.125,0.080,northwest,6.0,No
2022/11/08,22:00,0.158,0.143,0.230,0.219,0.217,0.125,0.080,northwest,6.7,No
2022/11/08,22:10,0.156,0.143,0.228,0.219,0.216,0.125,0.080,northwest,5.2,No
2022/11/08,22:20,0.158,0.143,0.229,0.219,0.218,0.125,0.080,north-northwest,4.7,No
2022/11/08,22:30,0.158,0.142,0.228,0.219,0.217,0.125,0.080,north-northwest,5.2,No
2022/11/08,22:40,0.157,0.143,0.228,0.219,0.218,0.126,0.079,north-northwest,5.0,No
2022/11/08,22:50,0.158,0.144,0.229,0.219,0.217,0.125,0.080,north-northwest,4.9,No
2022/11/08,23:00,0.157,0.144,0.228,0.219,0.217,0.125,0.081,north-northwest,4.1,No
2022/11/08,23:10,0.157,0.143,0.229,0.219,0.217,0.125,0.080,north,4.4,No
2022/11/08,23:20,0.158,0.144,0.230,0.220,0.217,0.125,0.080,north-northwest,4.3,No
2022/11/08,23:30,0.159,0.144,0.228,0.219,0.218,0.125,0.080,north-northwest,4.4,No
2022/11/08,23:40,0.158,0.143,0.228,0.220,0.217,0.125,0.080,north-northwest,4.0,No
2022/11/08,23:50,0.158,0.144,0.228,0.220,0.217,0.125,0.080,north-northwest,3.4,No
